Weather History for Houston, TX

Change the Weather History Date:

Tuesday, May 7, 2013

  Actual Average Record
Temperature  
Mean Temperature 71 °F 75 °F  
Max Temperature 87 °F 84 °F 94 °F (1998)
Min Temperature 54 °F 65 °F 47 °F (1891)
Cooling Degree Days 6 10  
Month to date cooling degree days 16 64  
Year to date cooling degree days 241 345  
Growing Degree Days 20 (Base 50)    
Moisture  
Dew Point 55 °F    
Average Humidity 59    
Maximum Humidity 86    
Minimum Humidity 32    
Precipitation  
Precipitation 0.00 in 0.17 in 2.61 in (1938)
Month to date precipitation 0.00 1.13  
Year to date precipitation 8.30 14.43  
Sea Level Pressure  
Sea Level Pressure 30.04 in    
Wind  
Wind Speed 5 mph (SSW)    
Max Wind Speed 16 mph    
Max Gust Speed 18 mph    
Visibility 10 miles    
Events      
T = Trace of Precipitation, MM = Missing Value Source: NWS Daily Summary

Daily Weather History Graph

Daily Weather History Graph

Search for Another Location

Airport:

Trip Planner

Search our weather history database for the weather conditions in past years. The results will help you decide how hot, cold, wet, or windy it might be!

Date:

Astronomy

May. 07, 2013 Rise Set
Actual Time 6:33 AM CDT 8:02 PM CDT
Civil Twilight 6:08 AM CDT 8:27 PM CDT
Nautical Twilight 5:37 AM CDT 8:58 PM CDT
Astronomical Twilight 5:05 AM CDT 9:30 PM CDT
Moon 4:58 AM CDT (5/7) 6:09 PM CDT (5/7)
Length of Visible Light 14h 19m
Length of Day
13h 28m
Waning Crescent, 5% of the Moon is Illuminated
May 7
Waning Crescent
May 9
New
May 17
First Quarter
May 24
Full
May 31
Last Quarter

Hourly Weather History & Observations

Time (CDT) Temp. Heat Index Dew Point Humidity Pressure Visibility Wind Dir Wind Speed Gust Speed Precip Events Conditions
12:53 AM 64.0 °F - 55.0 °F 73% 30.04 in 10.0 mi SW 8.1 mph - N/A   Scattered Clouds
1:53 AM 63.0 °F - 55.0 °F 75% 30.04 in 10.0 mi SW 4.6 mph - N/A   Scattered Clouds
2:53 AM 63.0 °F - 55.0 °F 75% 30.03 in 10.0 mi West 5.8 mph - N/A   Scattered Clouds
3:53 AM 61.0 °F - 55.0 °F 81% 30.04 in 10.0 mi West 5.8 mph - N/A   Scattered Clouds
4:53 AM 61.0 °F - 55.0 °F 81% 30.04 in 10.0 mi Calm Calm - N/A   Scattered Clouds
5:53 AM 59.0 °F - 54.0 °F 83% 30.04 in 10.0 mi WSW 3.5 mph - N/A   Scattered Clouds
6:53 AM 60.1 °F - 54.0 °F 80% 30.06 in 10.0 mi WSW 3.5 mph - N/A   Partly Cloudy
7:53 AM 64.0 °F - 55.9 °F 75% 30.08 in 10.0 mi West 3.5 mph - N/A   Scattered Clouds
8:53 AM 70.0 °F - 54.0 °F 57% 30.09 in 10.0 mi Calm Calm - N/A   Partly Cloudy
9:53 AM 73.9 °F - 55.0 °F 52% 30.09 in 10.0 mi Calm Calm - N/A   Partly Cloudy
10:53 AM 75.9 °F - 53.1 °F 45% 30.09 in 10.0 mi Variable 3.5 mph - N/A   Partly Cloudy
11:53 AM 78.1 °F - 54.0 °F 43% 30.08 in 10.0 mi West 6.9 mph - N/A   Scattered Clouds
12:53 PM 80.1 °F 79.9 °F 53.1 °F 39% 30.07 in 10.0 mi South 5.8 mph - N/A   Scattered Clouds
1:53 PM 82.0 °F 81.4 °F 55.0 °F 39% 30.04 in 10.0 mi Variable 4.6 mph - N/A   Scattered Clouds
2:53 PM 82.0 °F 81.2 °F 53.1 °F 37% 30.02 in 10.0 mi Variable 3.5 mph - N/A   Scattered Clouds
3:53 PM 82.0 °F 81.3 °F 54.0 °F 38% 30.00 in 10.0 mi Calm Calm - N/A   Scattered Clouds
4:53 PM 82.9 °F 82.0 °F 55.0 °F 38% 29.99 in 10.0 mi SSW 5.8 mph - N/A   Scattered Clouds
5:53 PM 81.0 °F 81.0 °F 57.0 °F 44% 29.98 in 10.0 mi South 12.7 mph - N/A   Scattered Clouds
6:53 PM 78.1 °F - 55.9 °F 46% 29.98 in 10.0 mi SSE 10.4 mph - N/A   Partly Cloudy
7:53 PM 73.9 °F - 55.9 °F 53% 29.99 in 10.0 mi South 11.5 mph - N/A   Partly Cloudy
8:53 PM 71.1 °F - 55.9 °F 59% 30.01 in 10.0 mi South 5.8 mph - N/A   Partly Cloudy
9:53 PM 69.1 °F - 57.9 °F 68% 30.03 in 10.0 mi South 9.2 mph - N/A   Partly Cloudy
10:53 PM 66.9 °F - 57.9 °F 73% 30.04 in 10.0 mi South 4.6 mph - N/A   Partly Cloudy
11:53 PM 64.9 °F - 57.9 °F 78% 30.04 in 10.0 mi South 4.6 mph - N/A   Partly Cloudy